map of SJK home
Great Circle Mapper logo
SJK - Airport
Location
City:  São José dos Campos, São Paulo, Brazil
Name:Professor Urbano Ernesto Stumpf
ICAO / IATA:SBSJ / SJK

Details
Type:Airport (Aerodrome, Airfield)
Use:Public/Civil, Military
Latitude:23°13'41"S (-23.228171)
Longitude:45°51'46"W (-45.862738)
Datum:WGS 1984
Elevation:2120 ft (646 m)
Runways:1
Longest:8779 × 148 ft (2676 × 45 m), paved

Time
Time Zone:UTC-3 (DST-2)
Local Time:

Weather
METAR:SBSJ 010700Z 03002KT 7000 BKN020 20/19 Q1017
TAF:SBSJ 010715Z 0112/0212 02010KT 8000 BKN016 TX32/0117Z TN18/0207Z
BECMG 0113/0115 33015KT PROB40 0117/0122 18015KT 4000 TSRA BKN012 FEW030CB
BECMG 0122/0124 16010KT 7000 BKN015
BECMG 0201/0203 07005KT SCT016 B ECMG 0204/0206 6000 BKN012 PROB30 0206/0212 4000 RA BR BKN007
RMK PGS

Related Locations
Nearby:
Farthest:MMD: 12183 mi / 19606 km
Minami Daito Jima, Okinawa, JP

Find:

   beyond  
but within

Other Information
Maps:
NOTAMs:
Links:
Sources:

  
flag of Brazil
flag of São Paulo
  

Sectional Chart

Flight Planning
at skyvector.com

Satellite Image

Google Maps Satellite View

 

Copyright © 2004-2014 Karl L. Swartz. All rights reserved.
The Great Circle Mapper name and logo are trademarks of the Great Circle Mapper.
All other trademarks mentioned herein belong to their respective owners.
Please see credits for attibutions and further copyright information.

  Follow gcmap on Facebook Follow gcmap on Twitter

hCard Microformat

Geo Microformat